Location: Degersen
(52.2871°N, 9.5716°E)
Time: 00:24:50
(UTC+00:00)

Cosmos 2278 Rocket - Pass Details

Date: 20 January 2026
Orbit: 839 x 846 km, 71.0° (Epoch: 17 February)

Event Time Altitude Azimuth Distance (km) Brightness Sun altitude
Exits shadow 03:48:29 35° 149° (SSE) 1,335 3.3 -31.6°
Maximum altitude 03:50:03 43° 110° (ESE) 1,168 3.2 -31.4°
Drops below altitude 10° 03:55:22 10° 41° (NE) 2,471 5.1 -30.6°
Sets 03:57:55 0° 35° (NE) 3,412 5.9 -30.2°
